EDDH Airport Information

Runway Information
Runway 05 Length 10663 ft width 150 ft
Elevation 32 ft Threshold 978 ft Heading 50
Runway 23 Length 10663 ft Width 150 ft
Elevation 43 ft Threshold 512 ft Heading 230
Runway 15 Length 12028 ft width 150 ft
Elevation 53 ft Threshold 0 ft Heading 153
Runway 33 Length 12028 ft Width 150 ft
Elevation 35 ft Threshold 1464 ft Heading 333
Airport Frequencies
Type ATIS Name ATIS Frequency 123.125 MHZ
Type DIR Name DIRECTOR Frequency 118.2 MHZ
Type GND Name GND Frequency 121.8 MHZ
Type RDR Name BREMEN RAD Frequency 134.25 MHZ
Type RMP Name APRON Frequency 121.7 MHZ
Type TWR Name TWR Frequency 126.85 MHZ
Airport Navaids
Type DME Name Alster Frequency 115800 KHZ
Type NDB Name Hamburg West Frequency 351 KHZ
Type NDB Name Hamburg North Frequency 323 KHZ
Type VORTAC Name Hamburg Frequency 113100 KHZ
Type NDB Name Hamburg Frequency 339 KHZ
Airport Weather Information & NOTAM
ADDS - METARS form results

(0602 UTC 21 July 2018)
 
METAR text: EDDH 210550Z 07004KT CAVOK 19/10 Q1012 BECMG 11008KT
Conditions at: EDDH (HAMBURG/FUHLSBUT, DE) observed 0550 UTC 21 July 2018
Temperature: 19.0°C (66°F)
Dewpoint: 10.0°C (50°F) [RH = 56%]
Pressure (altimeter): 29.88 inches Hg (1012.0 mb)
Winds: from the ENE (70 degrees) at 5 MPH (4 knots; 2.1 m/s)
Visibility: 6 or more miles (10+ km)
Ceiling: ceiling and visibility are OK
Clouds: unknown
Weather: no significant weather observed at this time

METAR text: EDDH 210520Z 05003KT CAVOK 18/10 Q1012 NOSIG
Conditions at: EDDH (HAMBURG/FUHLSBUT, DE) observed 0520 UTC 21 July 2018
Temperature: 18.0°C (64°F)
Dewpoint: 10.0°C (50°F) [RH = 59%]
Pressure (altimeter): 29.88 inches Hg (1012.0 mb)
Winds: from the NE (50 degrees) at 3 MPH (3 knots; 1.6 m/s)
Visibility: 6 or more miles (10+ km)
Ceiling: ceiling and visibility are OK
Clouds: unknown
Weather: no significant weather observed at this time